Location: Lussas
(44.6119°N, 4.4726°E)
Time: 05:49:20
(UTC+00:00)

Cosmos 1500 Rocket - Pass Details

Date: 26 November 2020
Orbit: 604 x 631 km, 82.5° (Epoch: 18 January)

Event Time Altitude Azimuth Distance (km) Brightness Sun altitude
Rises 05:16:42 0° 175° (S) 2,843 7.2 -16.8°
Reaches altitude 10° 05:18:56 10° 170° (S) 1,944 6.4 -16.4°
Maximum altitude 05:23:06 53° 94° (E) 748 4.4 -15.7°
Drops below altitude 10° 05:27:20 10° 18° (NNE) 1,964 6.2 -15.0°
Sets 05:29:35 0° 14° (NNE) 2,875 7.0 -14.6°
